Time,TemperatureF,DewpointF,PressureIn,WindDirection,WindDirectionDegrees,WindSpeedMPH,WindSpeedGustMPH,Humidity,HourlyPrecipIn,Conditions,Clouds,dailyrainin,SoftwareType,DateUTC
2013-09-20 00:00:00,65.0,-99.9,-100.00,SSW,213,5.0,8.0,-999,0.00,,,0.86,,2013-09-20 05:00:00,
2013-09-20 00:43:00,65.0,-99.9,-100.00,SSW,213,5.0,8.0,-999,0.00,,,0.86,,2013-09-20 05:43:00,
2013-09-20 00:53:00,65.0,-99.9,-100.00,SSW,213,5.0,8.0,-999,0.00,,,0.86,,2013-09-20 05:53:00,
2013-09-20 01:00:00,65.0,-99.9,-100.00,SW,225,2.0,5.0,-999,0.00,,,0.86,,2013-09-20 06:00:00,
2013-09-20 01:43:00,65.0,-99.9,-100.00,SW,225,2.0,5.0,-999,0.00,,,0.86,,2013-09-20 06:43:00,
2013-09-20 01:52:00,65.0,-99.9,-100.00,SW,225,2.0,5.0,-999,0.00,,,0.86,,2013-09-20 06:52:00,
2013-09-20 02:00:00,64.0,-99.9,-100.00,NW,321,2.0,12.0,-999,0.00,,,0.86,,2013-09-20 07:00:00,
2013-09-20 02:42:00,64.0,-99.9,-100.00,NW,321,2.0,12.0,-999,0.00,,,0.86,,2013-09-20 07:42:00,
2013-09-20 02:53:00,64.0,-99.9,-100.00,NW,321,2.0,12.0,-999,0.00,,,0.86,,2013-09-20 07:53:00,
2013-09-20 03:00:00,61.0,-99.9,-100.00,WNW,296,5.0,13.0,-999,0.00,,,0.86,,2013-09-20 08:00:00,
2013-09-20 03:42:00,61.0,-99.9,-100.00,WNW,296,5.0,13.0,-999,0.00,,,0.86,,2013-09-20 08:42:00,
2013-09-20 03:53:00,61.0,-99.9,-100.00,WNW,296,5.0,13.0,-999,0.00,,,0.86,,2013-09-20 08:53:00,
2013-09-20 04:00:00,62.0,-99.9,-100.00,NW,304,5.0,14.0,-999,0.00,,,0.86,,2013-09-20 09:00:00,
2013-09-20 04:44:00,62.0,-99.9,-100.00,NW,304,5.0,14.0,-999,0.00,,,0.86,,2013-09-20 09:44:00,
2013-09-20 04:54:00,62.0,-99.9,-100.00,NW,304,5.0,14.0,-999,0.00,,,0.86,,2013-09-20 09:54:00,
2013-09-20 05:00:00,61.0,-99.9,-100.00,NW,315,4.0,15.0,-999,0.00,,,0.86,,2013-09-20 10:00:00,
2013-09-20 05:42:00,61.0,-99.9,-100.00,NW,315,4.0,15.0,-999,0.00,,,0.86,,2013-09-20 10:42:00,
2013-09-20 05:53:00,61.0,-99.9,-100.00,NW,315,4.0,15.0,-999,0.00,,,0.86,,2013-09-20 10:53:00,
2013-09-20 06:00:00,60.0,-99.9,-100.00,NW,309,3.0,13.0,-999,0.00,,,0.86,,2013-09-20 11:00:00,
2013-09-20 06:42:00,60.0,-99.9,-100.00,NW,309,3.0,13.0,-999,0.00,,,0.86,,2013-09-20 11:42:00,
2013-09-20 06:52:00,60.0,-99.9,-100.00,NW,309,3.0,13.0,-999,0.00,,,0.86,,2013-09-20 11:52:00,
2013-09-20 08:00:00,58.0,-99.9,-100.00,NW,316,5.0,16.0,-999,0.00,,,0.86,,2013-09-20 13:00:00,
2013-09-20 08:42:00,58.0,-99.9,-100.00,NW,316,5.0,16.0,-999,0.00,,,0.86,,2013-09-20 13:42:00,
2013-09-20 08:53:00,58.0,-99.9,-100.00,NW,316,5.0,16.0,-999,0.00,,,0.86,,2013-09-20 13:53:00,
2013-09-20 09:00:00,58.0,-99.9,-100.00,NW,307,3.0,11.0,-999,0.00,,,0.86,,2013-09-20 14:00:00,
2013-09-20 09:43:00,58.0,-99.9,-100.00,NW,307,3.0,11.0,-999,0.00,,,0.86,,2013-09-20 14:43:00,
2013-09-20 09:52:00,58.0,-99.9,-100.00,NW,307,3.0,11.0,-999,0.00,,,0.86,,2013-09-20 14:52:00,
2013-09-20 11:00:00,61.0,-99.9,-100.00,NW,306,4.0,13.0,-999,0.00,,,0.86,,2013-09-20 16:00:00,
2013-09-20 11:43:00,61.0,-99.9,-100.00,NW,306,4.0,13.0,-999,0.00,,,0.86,,2013-09-20 16:43:00,
2013-09-20 11:53:00,61.0,-99.9,-100.00,NW,306,4.0,13.0,-999,0.00,,,0.86,,2013-09-20 16:53:00,
2013-09-20 12:00:00,63.0,-99.9,-100.00,NW,307,4.0,13.0,-999,0.00,,,0.86,,2013-09-20 17:00:00,
2013-09-20 12:43:00,63.0,-99.9,-100.00,NW,307,4.0,13.0,-999,0.00,,,0.86,,2013-09-20 17:43:00,
2013-09-20 12:53:00,63.0,-99.9,-100.00,NW,307,4.0,13.0,-999,0.00,,,0.86,,2013-09-20 17:53:00,
2013-09-20 13:00:00,65.0,-99.9,-100.00,NW,325,4.0,12.0,-999,0.00,,,0.86,,2013-09-20 18:00:00,
2013-09-20 13:42:00,65.0,-99.9,-100.00,NW,325,4.0,12.0,-999,0.00,,,0.86,,2013-09-20 18:42:00,
2013-09-20 13:52:00,65.0,-99.9,-100.00,NW,325,4.0,12.0,-999,0.00,,,0.86,,2013-09-20 18:52:00,
2013-09-20 14:00:00,67.0,-99.9,-100.00,NNW,330,3.0,10.0,-999,0.00,,,0.86,,2013-09-20 19:00:00,
2013-09-20 14:42:00,67.0,-99.9,-100.00,NNW,330,3.0,10.0,-999,0.00,,,0.86,,2013-09-20 19:42:00,
2013-09-20 14:53:00,67.0,-99.9,-100.00,NNW,330,3.0,10.0,-999,0.00,,,0.86,,2013-09-20 19:53:00,
2013-09-20 15:00:00,70.0,-99.9,-100.00,NW,316,3.0,9.0,-999,0.00,,,0.86,,2013-09-20 20:00:00,
2013-09-20 15:52:00,70.0,-99.9,-100.00,NW,316,3.0,9.0,-999,0.00,,,0.86,,2013-09-20 20:52:00,
2013-09-20 16:00:00,67.0,-99.9,-100.00,WNW,298,4.0,12.0,-999,0.00,,,0.86,,2013-09-20 21:00:00,
2013-09-20 16:45:00,67.0,-99.9,-100.00,WNW,298,4.0,12.0,-999,0.00,,,0.86,,2013-09-20 21:45:00,
2013-09-20 16:55:00,67.0,-99.9,-100.00,WNW,298,4.0,12.0,-999,0.00,,,0.86,,2013-09-20 21:55:00,
2013-09-20 17:00:00,69.0,-99.9,-100.00,NW,305,3.0,12.0,-999,0.00,,,0.85,,2013-09-20 22:00:00,
2013-09-20 17:53:00,69.0,-99.9,-100.00,NW,305,3.0,12.0,-999,0.00,,,0.85,,2013-09-20 22:53:00,
2013-09-20 18:00:00,66.0,-99.9,-100.00,WSW,250,2.0,8.0,-999,0.00,,,0.21,,2013-09-20 23:00:00,
2013-09-20 18:43:00,66.0,-99.9,-100.00,WSW,250,2.0,8.0,-999,0.00,,,0.21,,2013-09-20 23:43:00,
2013-09-20 18:53:00,66.0,-99.9,-100.00,WSW,250,2.0,8.0,-999,0.00,,,0.21,,2013-09-20 23:53:00,
2013-09-20 19:00:00,64.0,-99.9,-100.00,NNW,344,1.0,7.0,-999,0.00,,,0.11,,2013-09-21 00:00:00,
2013-09-20 19:42:00,64.0,-99.9,-100.00,NNW,344,1.0,7.0,-999,0.00,,,0.11,,2013-09-21 00:42:00,
2013-09-20 19:52:00,64.0,-99.9,-100.00,NNW,344,1.0,7.0,-999,0.00,,,0.11,,2013-09-21 00:52:00,
2013-09-20 20:00:00,60.0,-99.9,-100.00,North,355,0.0,3.0,-999,0.00,,,0.01,,2013-09-21 01:00:00,
2013-09-20 20:42:00,60.0,-99.9,-100.00,North,355,0.0,3.0,-999,0.00,,,0.01,,2013-09-21 01:42:00,
2013-09-20 20:52:00,60.0,-99.9,-100.00,North,355,0.0,3.0,-999,0.00,,,0.01,,2013-09-21 01:52:00,
2013-09-20 21:00:00,58.0,-99.9,-100.00,SSW,203,1.0,2.0,-999,0.00,,,0.00,,2013-09-21 02:00:00,
2013-09-20 21:42:00,58.0,-99.9,-100.00,SSW,203,1.0,2.0,-999,0.00,,,0.00,,2013-09-21 02:42:00,
2013-09-20 21:52:00,58.0,-99.9,-100.00,SSW,203,1.0,2.0,-999,0.00,,,0.00,,2013-09-21 02:52:00,
2013-09-20 22:00:00,59.0,-99.9,-100.00,NW,316,2.0,4.0,-999,0.00,,,0.00,,2013-09-21 03:00:00,
2013-09-20 22:55:00,59.0,-99.9,-100.00,NW,316,2.0,4.0,-999,0.00,,,0.00,,2013-09-21 03:55:00,
2013-09-20 23:00:00,59.0,-99.9,-100.00,West,266,2.0,11.0,-999,0.00,,,0.00,,2013-09-21 04:00:00,
2013-09-20 23:44:00,59.0,-99.9,-100.00,West,266,2.0,11.0,-999,0.00,,,0.00,,2013-09-21 04:44:00,
2013-09-20 23:54:00,59.0,-99.9,-100.00,West,266,2.0,11.0,-999,0.00,,,0.00,,2013-09-21 04:54:00,